Hourly Data Report for April 16, 2021

OTTAWA INTL A
ONTARIO
Current Station Operator: NAVCAN

45°19'00.000" N
75°40'00.000" W
114.90 m
6106001
71628
YOW

Download Data

Hourly Data (April 2021)
Hourly Data Report for April 16, 2021
TIME
LST
Temp Definition
°C
Dew Point Definition
°C
Rel Hum Definition
%
Precip. Amount Definition
mm

Wind Dir Definition
10's deg

Wind Spd Definition
km/h
Visibility Definition
km
Stn Press Definition
kPa
Hmdx Definition


Wind Chill Definition


Weather Definition


00:00 5.6 5.1 97   16 13 16.1 99.07     Rain
01:00 5.3 4.9 97   14 10 16.1 99.07     Rain
02:00 5.1 4.7 97   12 16 16.1 99.10     Rain
03:00 4.5 4.1 97   9 19 16.1 99.12     Rain
04:00 4.0 3.3 95   7 18 16.1 99.14     Rain
05:00 3.0 2.1 94   7 19 12.9 99.16     Rain
06:00 2.5 1.8 95   7 18 12.9 99.20     Rain
07:00 3.1 2.4 95   8 17 12.9 99.23     Rain
08:00 3.8 2.9 94   9 18 16.1 99.26     Rain
09:00 4.7 3.4 91   8 20 16.1 99.30     Rain
10:00 5.9 3.1 82   9 22 24.1 99.32     Cloudy
11:00 5.8 2.6 80   7 23 24.1 99.31     LegendNANA
12:00 7.9 4.0 76   6 21 24.1 99.30     LegendNANA
13:00 8.3 3.3 71   6 24 24.1 99.30     Cloudy
14:00 7.0 3.1 76   5 27 24.1 99.32     LegendNANA
15:00 7.5 2.9 73   7 18 24.1 99.31     LegendNANA
16:00 7.5 2.7 72   7 9 24.1 99.36     Cloudy
17:00 7.4 3.2 74   5 8 24.1 99.38     LegendNANA
18:00 7.4 3.5 76   27 5 24.1 99.43     LegendNANA
19:00 6.6 4.9 89   31 6 9.7 99.52     Rain Showers,Fog
20:00 6.2 4.7 90   8 11 16.1 99.62     LegendNANA
21:00 5.4 2.1 79   8 17 24.1 99.64     LegendNANA
22:00 4.5 1.4 80   8 17 24.1 99.63     Cloudy
23:00 4.2 1.6 83   10 10 24.1 99.63     LegendNANA

Notes on Data Quality.

Legend

  • E = Estimated
  • M = Missing
  • NA = Not Available*
  • [empty] = Indicates an unobserved value
Date modified: